Weather History for KBZN - June, 2013

Change the Weather History Date:

Wednesday, June 19, 2013

  Actual Average Record
Temperature  
Mean Temperature 65 °F 62 °F  
Max Temperature 81 °F 78 °F 95 °F (1974)
Min Temperature 49 °F 47 °F 28 °F (1996)
Degree Days  
Heating Degree Days 0 4  
Month to date heating degree days 122 109  
Since 1 June heating degree days 122 109  
Since 1 July heating degree days 7974 7526  
Cooling Degree Days 0 1  
Month to date cooling degree days 3 15  
Year to date cooling degree days 5 19  
Since 1 June cooling degree days 3 15  
Growing Degree Days 15 (Base 50)    
Moisture  
Dew Point 43 °F    
Average Humidity 53    
Maximum Humidity 80    
Minimum Humidity 26    
Precipitation  
Precipitation 0.05 in 0.07 in 0.96 in (2000)
Month to date precipitation 2.12 1.70  
Year to date precipitation 6.01 7.60  
Snow  
Snow 0.00 in 0.00 in 0.00 in (1999)
Month to date snowfall 0.0 0.3  
Since 1 June snowfall 0.0 0.3  
Since 1 July snowfall 24.6 40.2  
Snow Depth 0.00 in    
Sea Level Pressure  
Sea Level Pressure 29.58 in    
Wind  
Wind Speed 7 mph (NW)    
Max Wind Speed 41 mph    
Max Gust Speed 55 mph    
Visibility 10 miles    
Events Rain , Thunderstorm    
T = Trace of Precipitation, MM = Missing Value Source: NWS Daily Summary

Daily Weather History Graph

Daily Weather History Graph

Search for Another Location

Airport or City:

Trip Planner

Search our weather history database for the weather conditions in past years. The results will help you decide how hot, cold, wet, or windy it might be!

Date:

Astronomy

Jun. 19, 2013 Rise Set
Actual Time 5:34 AM MDT 9:17 PM MDT
Civil Twilight 4:56 AM MDT 9:56 PM MDT
Nautical Twilight 4:04 AM MDT 10:47 PM MDT
Astronomical Twilight 2:53 AM MDT 11:58 PM MDT
Moon 5:06 PM MDT (6/19) 2:31 AM MDT (6/19)
Length of Visible Light 17h 00m
Length of Day
15h 43m
Waxing Gibbous, 81% of the Moon is Illuminated
Jun 19
Waxing Gibbous
Jun 23
Full
Jun 29
Last Quarter
Jul 8
New
Jul 15
First Quarter

Hourly Weather History & Observations

Time (MDT) Temp. Dew Point Humidity Pressure Visibility Wind Dir Wind Speed Gust Speed Precip Events Conditions
12:56 AM 70.0 °F 34.0 °F 27% 29.52 in 10.0 mi SSE 12.7 mph - N/A   Clear
1:56 AM 61.0 °F 39.0 °F 44% 29.54 in 10.0 mi Variable 3.5 mph - N/A   Clear
2:56 AM 60.1 °F 37.9 °F 44% 29.55 in 10.0 mi NW 3.5 mph - N/A   Clear
3:56 AM 55.9 °F 44.1 °F 64% 29.53 in 10.0 mi North 4.6 mph - N/A   Clear
4:56 AM 52.0 °F 44.1 °F 74% 29.53 in 10.0 mi North 3.5 mph - N/A   Clear
5:56 AM 50.0 °F 45.0 °F 83% 29.54 in 10.0 mi Calm Calm - N/A   Clear
6:56 AM 52.0 °F 45.0 °F 77% 29.55 in 10.0 mi East 4.6 mph - N/A   Clear
7:56 AM 57.9 °F 46.9 °F 67% 29.52 in 10.0 mi Calm Calm - N/A   Clear
8:56 AM 62.1 °F 48.0 °F 60% 29.52 in 10.0 mi NW 8.1 mph - N/A   Clear
9:56 AM 64.0 °F 50.0 °F 60% 29.52 in 10.0 mi North 3.5 mph - N/A   Clear
10:56 AM 66.9 °F 48.9 °F 52% 29.51 in 10.0 mi Calm Calm - N/A   Clear
11:56 AM 71.1 °F 46.9 °F 42% 29.50 in 10.0 mi Calm Calm - N/A   Clear
12:56 PM 73.0 °F 52.0 °F 48% 29.48 in 10.0 mi Variable 4.6 mph - N/A   Clear
1:56 PM 75.0 °F 53.1 °F 46% 29.49 in 10.0 mi North 4.6 mph - N/A   Clear
2:56 PM 77.0 °F 50.0 °F 39% 29.47 in 10.0 mi NW 5.8 mph - N/A   Clear
3:54 PM 80.6 °F 46.4 °F 30% 29.57 in 10.0 mi NE 6.9 mph - N/A Thunderstorm Clear
3:56 PM 79.0 °F 45.0 °F 30% 29.45 in 10.0 mi NE 10.4 mph - N/A Thunderstorm Clear
4:30 PM 75.2 °F 55.4 °F 50% 29.57 in 10.0 mi NE 6.9 mph - N/A   Clear
4:56 PM 77.0 °F 53.1 °F 43% 29.45 in 10.0 mi East 4.6 mph - N/A   Mostly Cloudy
5:24 PM 69.8 °F 42.8 °F 38% 29.64 in 10.0 mi West 32.2 mph 44.9 mph N/A   Squalls
5:32 PM 68.0 °F 41.0 °F 37% 29.66 in 10.0 mi West 33.4 mph 42.6 mph N/A Thunderstorm Overcast
5:56 PM 59.0 °F 45.0 °F 60% 29.63 in 10.0 mi West 26.5 mph 40.3 mph 0.05 in Rain , Thunderstorm Thunderstorms and Rain
6:44 PM 57.2 °F 41.0 °F 55% 29.76 in 10.0 mi WSW 21.9 mph 34.5 mph 0.00 in   Overcast
6:56 PM 57.9 °F 39.9 °F 51% 29.74 in 10.0 mi West 12.7 mph 25.3 mph 0.00 in   Mostly Cloudy
7:56 PM 54.0 °F 43.0 °F 66% 29.73 in 10.0 mi NNE 5.8 mph - N/A   Clear
8:56 PM 60.1 °F 33.1 °F 36% 29.71 in 10.0 mi SW 18.4 mph 27.6 mph N/A   Clear
9:56 PM 57.9 °F 26.1 °F 30% 29.70 in 10.0 mi SW 18.4 mph 28.8 mph N/A   Clear
10:56 PM 54.0 °F 28.9 °F 38% 29.74 in 10.0 mi WSW 10.4 mph - N/A   Clear
11:56 PM 53.1 °F 28.9 °F 40% 29.76 in 10.0 mi WSW 17.3 mph - N/A   Clear